www.pogodaiklimat.ru

Погода и климат >> Архив погоды >> Иран >> Месджеде-Солейман


ПОГОДА в Месджеде-Солеймане

  • Прогноз погоды в Месджеде-Солеймане
  • Монитор погоды в Месджеде-Солеймане

АРХИВ ПОГОДЫ в Месджеде-Солеймане

Время (UTC), дата Ветер
(напр.,м/с)
 
Видим.   Явления Облачность Т
(С)
Тd
(С)
f
(%)
Тe
(С)
Тes
(С)
Комфортность P
(гПа)
Po
(гПа)
Тmin
(С)
Tmax
(С)
R
(мм)
R24
(мм)
S
(см)
15 12.06 З 5 10 км ясно +43.2 -21.2 1 +38 +39 очень
жарко
997.6 963.4 +45.8 666
18 12.06 З 1 10 км ясно +36.6 -16.4 3 +32 +32 жарко 998.8 964.6
21 12.06 Ю 1 10 км ясно +32.9 -11.5 5 +28 +28 жарко 998.4 964.3
00 13.06 ЮВ 2 10 км ясно +30.5 -11.1 6 +26 +26 жарко 998.5 964.2
03 13.06 ЮВ 2 10 км ясно +31.0 -9.6 7 +27 +28 жарко 999.6 965.1 +28.1 666
06 13.06 ЮВ 2 10 км ясно +37.2 -15.0 3 +32 +47 жарко 1000.4 965.9
09 13.06 С 2 10 км ясно +40.1 -25.9 1 +35 +57 опасность
солнечного
удара
1000.4 965.8
12 13.06 З 2 10 км ясно +42.8 -25.4 1 +38 +49 очень
жарко
998.7 964.2
15 13.06 З 3 10 км ясно +41.4 -25.2 1 +36 +37 очень
жарко
998.5 963.9 +42.9
18 13.06 ЮВ 1 10 км ясно +34.5 -22.7 2 +29 +29 жарко 999.2 964.6
21 13.06 ЮВ 1 10 км ясно +31.7 -14.2 4 +27 +27 жарко 998.8 964.3
00 14.06 ЮВ 2 10 км ясно +28.7 -12.6 6 +25 +25 комфорт 998.4 963.9
03 14.06 СЗ 1 10 км ясно +29.7 -6.4 9 +26 +28 жарко 999.3 964.7 +26.5
06 14.06 ЮВ 1 10 км ясно +40.8 -20.0 2 +36 +53 опасность
солнечного
удара
1000.1 965.7
09 14.06 С 5 10 км ясно +43.2 -25.1 1 +38 +50 очень
жарко
999.3 964.9
12 14.06 З 6 10 км ясно +44.1 -24.5 1 +39 +44 очень
жарко
998.2 963.7
15 14.06 З 4 10 км ясно +42.7 -25.6 1 +38 +38 очень
жарко
998.0 963.5 +44.8
18 14.06 С 1 10 км ясно +34.7 -21.5 2 +30 +30 жарко 998.8 964.5
21 14.06 ЮВ 1 10 км ясно +31.6 -16.3 4 +27 +27 жарко 998.6 964.2
00 15.06 ЮВ 1 10 км ясно +29.0 -8.4 8 +25 +25 комфорт 998.4 964.0
03 15.06 С 1 10 км ясно +29.8 -7.8 8 +26 +28 жарко 999.2 964.7 +25.9
06 15.06 Ю 2 10 км ясно +41.9 -8.3 4 +37 +52 опасность
солнечного
удара
999.9 965.6
09 15.06 С 3 10 км ясно +44.5 -6.6 4 +40 +58 опасность
солнечного
удара
999.4 965.2
12 15.06 СЗ 3 10 км ясно +45.2 -6.1 4 +41 +50 опасность
перегрева
998.1 963.8
15 15.06 З 5 10 км ясно +43.7 -7.1 4 +39 +40 очень
жарко
997.9 963.5 +46.1
18 15.06 З 2 10 км ясно +36.7 +2.2 12 +33 +33 жарко 998.8 964.4
21 15.06 СЗ 1 10 км ясно +32.9 +8.0 21 +31 +31 жарко 998.8 964.5
00 16.06 ЮВ 1 10 км ясно +31.7 +1.0 14 +29 +29 жарко 998.2 964.1
03 16.06 штиль 0 10 км ясно +33.3 +3.7 16 +31 +33 жарко 998.5 964.4 +28.8 666
06 16.06 З 1 10 км ясно +42.1 -8.5 4 +38 +54 опасность
солнечного
удара
1000.2 966.0
09 16.06 С 3 10 км ясно +45.1 -23.0 1 +40 +58 опасность
солнечного
удара
1000.1 965.9 666
12 16.06 СЗ 5 10 км ясно +46.0 -22.5 1 +41 +47 опасность
перегрева
999.2 965.0
15 16.06 СЗ 3 10 км ясно +44.0 -14.7 2 +39 +40 очень
жарко
998.9 964.6 +46.7
18 16.06 З 2 10 км ясно +39.3 -7.1 5 +35 +35 очень
жарко
999.6 965.6
21 16.06 СЗ 2 10 км ясно +35.2 -2.4 9 +31 +31 жарко 999.9 965.9
00 17.06 Ю 1 10 км ясно +32.0 +0.2 13 +29 +29 жарко 999.4 965.3
03 17.06 СЗ 1 10 км ясно +32.1 +0.8 14 +29 +31 жарко 1000.1 965.8 +30.3
06 17.06 СЗ 1 10 км ясно +42.3 -3.3 6 +38 +55 опасность
солнечного
удара
1001.3 967.3
09 17.06 З 4 10 км ясно +44.7 -12.8 2 +40 +55 опасность
солнечного
удара
1001.5 967.3 666
12 17.06 СЗ 6 10 км ясно +44.5 -24.3 1 +40 +44 очень
жарко
1000.6 966.2
15 17.06 З 4 10 км ясно +43.0 -21.4 1 +38 +38 очень
жарко
1000.2 965.8 +45.2 666
18 17.06 З 3 10 км ясно +38.9 -12.2 3 +34 +34 очень
жарко
1001.0 966.9
21 17.06 З 1 10 км ясно +34.6 -3.1 9 +31 +31 жарко 1001.4 967.2
00 18.06 ЮВ 2 10 км ясно +31.3 -1.0 12 +28 +28 жарко 1000.6 966.2
03 18.06 ЮВ 3 10 км ясно +30.9 -0.4 13 +28 +29 жарко 1000.9 966.5 +30.1
06 18.06 ЮВ 2 10 км ясно +39.8 -6.0 5 +35 +50 очень
жарко
1001.0 966.8
09 18.06 ЮВ 2 10 км ясно +41.9 -12.7 3 +37 +59 опасность
солнечного
удара
1000.2 965.9 666
12 18.06 З 5 10 км ясно +43.0 -16.5 2 +38 +44 очень
жарко
999.0 964.6
15 18.06 СЗ 4 10 км ясно +42.0 -18.1 2 +37 +38 очень
жарко
998.2 963.8 +43.7
18 18.06 З 3 10 км ясно +38.2 -8.0 5 +34 +34 очень
жарко
998.8 964.6
21 18.06 З 2 10 км ясно +34.0 -4.2 8 +30 +30 жарко 998.5 964.2
00 19.06 ЮВ 2 10 км ясно +30.2 -0.7 14 +27 +27 жарко 997.5 963.2
03 19.06 СЗ 1 10 км ясно +30.0 +1.8 16 +27 +29 жарко 997.7 963.3 +28.7
06 19.06 С 1 10 км ясно +38.7 -2.7 7 +35 +51 опасность
солнечного
удара
997.8 963.6
12 19.06 З 4 10 км ясно +42.9 -19.8 1 +38 +46 очень
жарко
996.6 962.2

 

Местоположение метеостанции Месджеде-Солейман (Иран): широта 31.98 долгота 49.27 высота над уровнем моря 320 м.

В архиве по умолчанию представлена погода в Месджеде-Солеймане за последнюю неделю. Архивные данные за месяц целиком и за предыдущие месяцы, начиная с января 2011 года, Вы можете получить, выбрав интересующий диапазон дат из раскрывающегося списка и нажав кнопку "Ввод!".


*Определитесь, кто Вы:
робот инопланетянин человек

Внимание! Время в таблицах - всемирное. Для получения местного времени необходимо прибавить поправку, которая равна 3.5 ч.

Смотрите также архив погоды в соседних городах и на ближайших метеорологических станциях:

Погода в Сафиабаде (Иран) (86 км)
Погода в Ахвазе (Иран) (92 км)
Погода в Омидийе (Иран) (140 км)
Погода в Шехре-Корде (Иран) (153 км)
Погода в Элигудерзе (Иран) (163 км)
Погода в Хорремабаде (Иран) (187 км)
Погода в Амаре (Ирак) (199 км)
Погода в Абадане (Иран) (204 км)
Погода в Басре (Ирак) (211 км)
Погода в Басре аэропорт (Ирак) (216 км)

Пояснения к столбцам:

Ветер - указаны скорость ветра в м/с - средняя за 10 мин, порывы в срок и между сроками (в фигурных скобках) и направление, откуда дует ветер: С - северный, СВ - северо-восточный, В - восточный, ЮВ - юго-восточный, Ю - южный, ЮЗ - юго-западный, З - западный, СЗ - северо-западный.
Видимость - горизонтальная дальность видимости в метрах или километрах. При видимости от 1 до 10 км при отсутствии осадков обычно наблюдается дымка, при ухудшении видимости до 1 км и менее - туман. В сухую погоду видимость может ухудшаться дымом, пылью или мглою.
Явления - указаны атмосферные явления, наблюдавшиеся в срок или в последний час перед сроком; фигурными скобками обозначены явления, наблюдавшиеся между сроками (за 1-3 часа до срока); квадратными скобками обозначены град или гололедные отложения с указанием их диаметра в мм.
Облачность - указаны через наклонную черту общая и нижняя облачность в баллах и высота нижней границы облаков в метрах; квадратными скобками обозначены формы облаков: Ci - перистые, Cs - перисто-слоистые, Cc - перисто-кучевые, Ac - высококучевые, As - высокослоистые, Sc - слоисто-кучевые, Ns - слоисто-дождевые, Cu - кучевые, Cb - кучево-дождевые. Подробнее классификацию облаков см. в Атласе облаков (PDF).
T - Температура воздуха - температура, измеренная на высоте 2 м над землей.
Td - Температура точки росы - температура, при понижении до которой содержащийся в воздухе водяной пар достигнет насыщения.
f - Относительная влажность воздуха - влажноcть воздуха, измеренная на высоте 2 м над землей.
Te - Эффективная температура - температура, которую ощущает одетый по сезону человек в тени. Характеристика душности погоды. При расчете учитывается влияние влажности воздуха и скорости ветра на теплоощущения человека.
Tes - Эффективная температура на солнце - температура, которую ощущает человек, с поправкой на солнечный нагрев. Характеристика знойности погоды. Зависит от высоты солнца над горизонтом, облачности и скорости ветра. Ночью, в пасмурную погоду, а также при ветре 12 м/с и более поправка равна нулю.
P - Атмосферное давление - приведенное к уровню моря атмосферное давление.
Po - Атмосферное давление - измеренное на уровне метеостанции атмосферное давление.
Tmin - Минимальная температура - минимум температуры воздуха на высоте 2 м над землей.
Tmax - Максимальная температура - максимум температуры воздуха на высоте 2 м над землей.
R - Количество осадков - Количество выпавших осадков за период времени, мм. При наведении курсора мыши на число - период времени, за который выпало указанное количество осадков.
R24 - Количество осадков - Количество выпавших осадков за 24 часа, мм.
S - Снежный покров - Высота снежного покрова, см. При наведении курсора мыши на число - состояние снежного покрова и степень покрытия местности в баллах.